Weather History for KINW - October, 2012

Change the Weather History Date:

Wednesday, October 24, 2012

  Actual Average Record
Temperature  
Mean Temperature 58 °F 53 °F  
Max Temperature 74 °F 70 °F 84 °F (2014)
Min Temperature 42 °F 36 °F 16 °F (1980)
Degree Days  
Heating Degree Days 7 12  
Month to date heating degree days 107 182  
Since 1 July heating degree days 109 213  
Cooling Degree Days 0 0  
Month to date cooling degree days 19 6  
Year to date cooling degree days 1442 1207  
Growing Degree Days 8 (Base 50)    
Moisture  
Dew Point 21 °F    
Average Humidity 31    
Maximum Humidity 53    
Minimum Humidity 9    
Precipitation  
Precipitation 0.00 in 0.02 in 0.36 in (1921)
Month to date precipitation 0.13 0.42  
Year to date precipitation 4.87 5.83  
Sea Level Pressure  
Sea Level Pressure 29.83 in    
Wind  
Wind Speed 11 mph (WSW)    
Max Wind Speed 32 mph    
Max Gust Speed 38 mph    
Visibility 10 miles    
Events      
T = Trace of Precipitation, MM = Missing Value Source: NWS Daily Summary

Daily Weather History Graph

Daily Weather History Graph

Search for Another Location

Airport or City:

Trip Planner

Search our weather history database for the weather conditions in past years. The results will help you decide how hot, cold, wet, or windy it might be!

Date:

Astronomy

Oct. 24, 2012 Rise Set
Actual Time 6:37 AM MST 5:36 PM MST
Civil Twilight 6:11 AM MST 6:02 PM MST
Nautical Twilight 5:41 AM MST 6:31 PM MST
Astronomical Twilight 5:12 AM MST 7:01 PM MST
Moon 2:44 PM MST (10/24) 1:46 AM MST (10/24)
Length of Visible Light 11h 50m
Length of Day
10h 59m
Waxing Gibbous, 77% of the Moon is Illuminated
Oct 24
Waxing Gibbous
Oct 29
Full
Nov 6
Last Quarter
Nov 13
New
Nov 20
First Quarter

Hourly Weather History & Observations

Time (MST) Temp. Windchill Dew Point Humidity Pressure Visibility Wind Dir Wind Speed Gust Speed Precip Events Conditions
12:56 AM 48.9 °F - 30.9 °F 50% 29.78 in 10.0 mi Calm Calm - N/A   Clear
1:56 AM 48.0 °F - 30.0 °F 50% 29.80 in 10.0 mi SE 4.6 mph - N/A   Clear
2:56 AM 46.9 °F - 30.0 °F 52% 29.80 in 10.0 mi Calm Calm - N/A   Clear
3:56 AM 46.9 °F - 30.9 °F 54% 29.79 in 10.0 mi Calm Calm - N/A   Clear
4:56 AM 46.0 °F 43.9 °F 30.9 °F 56% 29.81 in 10.0 mi Variable 4.6 mph - N/A   Clear
5:56 AM 46.9 °F - 30.9 °F 54% 29.82 in 10.0 mi SE 3.5 mph 16.1 mph N/A   Clear
6:56 AM 46.9 °F - 30.9 °F 54% 29.84 in 10.0 mi East 3.5 mph - N/A   Clear
7:56 AM 50.0 °F - 33.1 °F 52% 29.86 in 10.0 mi Calm Calm - N/A   Clear
8:56 AM 61.0 °F - 30.9 °F 32% 29.82 in 10.0 mi Variable 3.5 mph - N/A   Clear
9:56 AM 69.1 °F - 12.9 °F 11% 29.80 in 10.0 mi SW 18.4 mph 28.8 mph N/A   Clear
10:56 AM 71.1 °F - 10.9 °F 10% 29.78 in 10.0 mi SW 25.3 mph 35.7 mph N/A   Clear
11:56 AM 73.9 °F - 15.1 °F 11% 29.78 in 10.0 mi WSW 25.3 mph 32.2 mph N/A   Clear
12:56 PM 73.0 °F - 17.1 °F 12% 29.77 in 10.0 mi WSW 25.3 mph 36.8 mph N/A   Clear
1:56 PM 72.0 °F - 23.0 °F 16% 29.76 in 10.0 mi SW 23.0 mph 35.7 mph N/A   Clear
2:56 PM 72.0 °F - 21.9 °F 15% 29.75 in 10.0 mi SW 23.0 mph 32.2 mph N/A   Clear
3:56 PM 71.1 °F - 14.0 °F 11% 29.75 in 10.0 mi WSW 25.3 mph 35.7 mph N/A   Clear
4:56 PM 66.9 °F - 16.0 °F 14% 29.80 in 10.0 mi West 21.9 mph 33.4 mph N/A   Clear
5:56 PM 63.0 °F - 16.0 °F 16% 29.83 in 10.0 mi WSW 15.0 mph 24.2 mph N/A   Clear
6:56 PM 59.0 °F - 17.1 °F 20% 29.87 in 10.0 mi SW 15.0 mph - N/A   Clear
7:56 PM 53.1 °F - 18.0 °F 25% 29.91 in 10.0 mi East 4.6 mph - N/A   Clear
8:56 PM 51.1 °F - 18.0 °F 27% 29.91 in 10.0 mi NNW 5.8 mph - N/A   Clear
9:56 PM 48.9 °F - 12.0 °F 23% 29.93 in 10.0 mi WNW 3.5 mph - N/A   Clear
10:56 PM 48.9 °F - 12.0 °F 23% 29.95 in 10.0 mi NNW 9.2 mph - N/A   Clear
11:56 PM 43.0 °F 38.2 °F 10.9 °F 27% 29.96 in 10.0 mi NW 8.1 mph - N/A   Clear